Hourly Data Report for April 21, 2012

MIRAMICHI RCS
NEW BRUNSWICK

47°00'34.000" N
65°27'54.000" W
33.00 m
8100989
71744
ACQ

Download Data

Hourly Data (April 2012)
Hourly Data Report for April 21, 2012
TIME
LST
Temp Definition
°C
Dew Point Definition
°C
Rel Hum Definition
%
Precip. Amount Definition
mm

Wind Dir Definition
10's deg

Wind Spd Definition
km/h
Visibility Definition
km
Stn Press Definition
kPa
Hmdx Definition


Wind Chill Definition


Weather Definition


00:00 4.4 1.7 83   7 13   101.15     LegendNANA
01:00 4.3 1.4 81   8 11   101.13     LegendNANA
02:00 4.3 0.9 79   8 13   101.10     LegendNANA
03:00 4.4 1.0 79   8 13   101.08     LegendNANA
04:00 4.6 1.7 81   7 13   101.03     LegendNANA
05:00 4.3 1.7 83   9 11   100.98     LegendNANA
06:00 4.0 1.5 84   9 9   100.96     LegendNANA
07:00 4.5 2.0 84   8 11   100.92     LegendNANA
08:00 5.4 2.4 81   7 9   100.88     LegendNANA
09:00 6.9 3.4 78   9 6   100.86     LegendNANA
10:00 7.7 4.9 82   22 6   100.82     LegendNANA
11:00 9.0 5.7 80     0   100.78     LegendNANA
12:00 9.1 6.9 86   35 6   100.77     LegendNANA
13:00 8.4 7.1 92   4 7   100.72     LegendNANA
14:00 8.5 7.4 93   4 7   100.68     LegendNANA
15:00 8.0 7.0 93   7 9   100.66     LegendNANA
16:00 7.7 6.8 94   7 17   100.66     LegendNANA
17:00 6.7 5.8 94   8 20   100.65     LegendNANA
18:00 5.6 4.6 93   6 19   100.70     LegendNANA
19:00 4.7 3.7 93   4 15   100.79     LegendNANA
20:00 3.6 2.6 93   3 15   100.84     LegendNANA
21:00 2.8 1.8 93   3 11   100.89     LegendNANA
22:00 1.7 0.7 93   3 15   100.91     LegendNANA
23:00 1.2 0.3 94   2 13   100.98     LegendNANA

Notes on Data Quality.

Legend

  • E = Estimated
  • M = Missing
  • NA = Not Available*
  • [empty] = Indicates an unobserved value
Date modified: